TimeCST,TemperatureF,Dew PointF,Humidity,Sea Level PressureIn,VisibilityMPH,Wind Direction,Wind SpeedMPH,Gust SpeedMPH,PrecipitationIn,Events,Conditions,WindDirDegrees,DateUTC
12:53 AM,37.0,27.0,67,30.20,10.0,NW,5.8,-,N/A,,Mostly Cloudy,320,2013-02-15 06:53:00
1:53 AM,37.0,25.0,62,30.22,10.0,NW,9.2,-,N/A,,Clear,320,2013-02-15 07:53:00
2:53 AM,35.1,24.1,64,30.24,10.0,NW,15.0,23.0,N/A,,Clear,320,2013-02-15 08:53:00
3:53 AM,30.9,24.1,76,30.27,10.0,NW,15.0,-,N/A,,Clear,310,2013-02-15 09:53:00
4:53 AM,30.0,24.1,79,30.29,10.0,NW,10.4,-,N/A,,Clear,320,2013-02-15 10:53:00
5:44 AM,30.2,24.8,80,30.29,10.0,NW,10.4,-,N/A,,Mostly Cloudy,310,2013-02-15 11:44:00
5:53 AM,30.0,25.0,82,30.30,10.0,NW,9.2,-,N/A,,Mostly Cloudy,310,2013-02-15 11:53:00
6:53 AM,30.0,23.0,75,30.32,10.0,NNW,10.4,-,N/A,,Mostly Cloudy,330,2013-02-15 12:53:00
7:08 AM,28.4,23.0,80,30.31,10.0,NNW,11.5,-,N/A,,Scattered Clouds,330,2013-02-15 13:08:00
7:53 AM,28.9,19.9,69,30.36,10.0,NNW,15.0,-,N/A,,Clear,340,2013-02-15 13:53:00
8:53 AM,28.9,19.0,67,30.38,10.0,NNW,15.0,24.2,N/A,,Clear,340,2013-02-15 14:53:00
9:53 AM,32.0,19.0,59,30.38,10.0,NNW,12.7,-,N/A,,Clear,330,2013-02-15 15:53:00
10:53 AM,34.0,17.1,50,30.38,10.0,NNW,8.1,-,N/A,,Clear,340,2013-02-15 16:53:00
11:53 AM,37.0,12.0,36,30.38,10.0,NNW,12.7,20.7,N/A,,Clear,330,2013-02-15 17:53:00
12:53 PM,37.9,12.0,35,30.36,10.0,NNW,8.1,18.4,N/A,,Clear,330,2013-02-15 18:53:00
1:53 PM,39.0,12.9,34,30.34,10.0,WNW,11.5,17.3,N/A,,Clear,290,2013-02-15 19:53:00
2:53 PM,39.0,12.0,33,30.33,10.0,NNW,11.5,-,N/A,,Clear,340,2013-02-15 20:53:00
3:53 PM,39.0,12.0,33,30.34,10.0,NW,12.7,19.6,N/A,,Clear,320,2013-02-15 21:53:00
4:53 PM,37.0,12.0,36,30.34,10.0,NW,13.8,-,N/A,,Clear,310,2013-02-15 22:53:00
5:53 PM,34.0,12.9,42,30.34,10.0,NNW,8.1,-,N/A,,Clear,330,2013-02-15 23:53:00
6:53 PM,30.9,14.0,50,30.35,10.0,NW,3.5,-,N/A,,Scattered Clouds,320,2013-02-16 00:53:00
7:53 PM,30.0,12.9,49,30.35,10.0,Calm,Calm,-,N/A,,Partly Cloudy,0,2013-02-16 01:53:00
8:53 PM,28.0,15.1,58,30.34,10.0,SSW,4.6,-,N/A,,Clear,200,2013-02-16 02:53:00
9:53 PM,27.0,15.1,61,30.32,10.0,SSW,4.6,-,N/A,,Clear,200,2013-02-16 03:53:00
10:53 PM,26.1,16.0,66,30.30,10.0,South,6.9,-,N/A,,Mostly Cloudy,190,2013-02-16 04:53:00
11:53 PM,27.0,19.9,75,30.31,10.0,West,4.6,-,N/A,,Overcast,280,2013-02-16 05:53:00